Regional Weather Roundup
Issued by NWS

Home | Current Version | Previous Version | Graphics & Text | Print | Product List | Glossary On
Versions: 1 2 3 4 5 6 7 8 9 10 11 12 13 14 15 16 17 18 19 20 21 22 23 24 25 26 27 28 29 30 31 32 33 34 35 36 37 38 39 40 41 42 43 44 45 46 47 48 49 50
000
ASUS43 KDTX 110710
RWRMI
MICHIGAN HOURLY REGIONAL WEATHER ROUNDUP
NATIONAL WEATHER SERVICE DETROIT/PONTIAC MI
ISSUED BY NATIONAL WEATHER SERVICE GRAND RAPIDS MI
200 AM EST MON DEC 11 2017

NOTE: "FAIR" INDICATES FEW OR NO CLOUDS BELOW 12,000 FEET WITH NO
SIGNIFICANT WEATHER AND/OR OBSTRUCTION TO VISIBILITY.

MIZ047>049-052>055-059>063-066>070-074>076-081>083-110800-
SOUTHEAST LOWER MICHIGAN

CITY           SKY/WX    TMP DP  RH WIND       PRES   REMARKS
ADRIAN         CLOUDY    24  19  81 NW3       30.03R
ALMA           CLOUDY    22  13  71 NW5       30.03R WCI  15
ANN ARBOR      CLEAR     22  18  85 W5        30.00S WCI  16
BAD AXE        CLOUDY    18  11  74 N14       30.00S WCI   4
DETROIT CITY   CLOUDY    27  20  75 NW6       29.99F WCI  20
DETROIT        CLOUDY    27  20  75 NW8       30.01S WCI  19
FLINT          MOCLDY    21  16  81 NW6       30.01R WCI  13
GROSSE ILE     CLOUDY    27  21  77 NW6       29.99F WCI  21
HILLSDALE      CLOUDY    27  21  80 W3        29.99S
HOWELL         CLOUDY    24  21  90 NW5       30.00R WCI  18

CITY           SKY/WX    TMP DP  RH WIND       PRES   REMARKS
JACKSON        CLOUDY    26  19  74 W3        30.00S
LANSING        CLOUDY    23  19  85 NW3       30.02R
MASON          CLOUDY    26  19  76 NW3       30.01R
MONROE         PTCLDY    24  18  77 W6        30.01S WCI  17
MT. CLEMENS    CLOUDY    27  23  86 NW7       29.97S WCI  19
PONTIAC        MOCLDY    24  21  88 NW7       29.96F WCI  16
PORT HOPE        N/A     21  11  65 NW12G18   29.99R WCI   9
PORT HURON     CLOUDY    25  18  74 NW10      29.99R WCI  15
TRI CITIES     PTCLDY    17  13  84 NW7       30.02R WCI   8
YPSILANTI      MOCLDY    27  21  78 NW9       30.01S WCI  18
$$
MIZ043>046-050>051-056>058-064>065-071>073-077>080-110800-
SOUTHWEST LOWER MICHIGAN

CITY           SKY/WX    TMP DP  RH WIND       PRES   REMARKS
BATTLE CREEK   CLOUDY    27  21  78 W3        30.00F
BENTON HARBOR  CLOUDY    31  19  61 W5        30.03F WCI  26
BIG RAPIDS     CLOUDY    21  13  70 CALM      29.99F
COLDWATER      CLOUDY    27  22  84 CALM      30.00F
HOLLAND        CLOUDY    28  20  71 NE3       30.03S
GRAND RAPIDS   CLOUDY    26  22  84 CALM      30.02R
KALAMAZOO      CLOUDY    27  21  78 SW3       30.01F
MARSHALL       CLOUDY    26  21  83 CALM      29.99F
MOUNT PLEASANT CLOUDY    16  10  76 CALM      30.01S
MUSKEGON       CLOUDY    26  18  71 E7        30.03S WCI  18
STURGIS        CLOUDY    26  22  87 CALM      30.01S
$$
MIZ016>042-110800-
NORTHERN LOWER MICHIGAN

CITY           SKY/WX    TMP DP  RH WIND       PRES   REMARKS
ALPENA         CLOUDY    16   7  67 W6        30.01R WCI   7
BEAVER ISLAND  CLOUDY    20  10  65 NW5       30.00S WCI  14
BELLAIRE       FLURRIES  19  14  82 CALM      30.01S
CADILLAC       FLURRIES  18  11  74 W3        29.96S
CHARLEVOIX     CLOUDY    22  13  67 NW6       30.02S WCI  14
GAYLORD        CLOUDY    13   7  77 CALM      29.95R
HOUGHTON LAKE  CLOUDY    17   9  70 NW3       29.98R
MANISTEE       CLOUDY    22  13  68 CALM      30.02S
OSCODA         CLEAR      9   1  69 W6        30.01S WCI  -1
PELLSTON       CLOUDY    16   9  74 CALM      30.00R
TRAVERSE CITY  CLOUDY    22  12  65 W8        30.00S WCI  12
LUDINGTON      CLOUDY    24  14  64 CALM      30.02S
$$
MIZ007>008-015-110800-
EASTERN UPPER MICHIGAN

CITY           SKY/WX    TMP DP  RH WIND       PRES   REMARKS
KINROSS        FLURRIES   7   2  80 SE6       30.00S WCI  -3
MACKINAC ISLAN CLOUDY    17   7  63 NW8       29.99S WCI   7
NEWBERRY       LGT SNOW  13  13  98 CALM      29.98F
S. S. MARIE    MIX PCPN   7  -2  66 VRB6      30.01R WCI  -3
$$
MIZ004>006-011>014-085-110800-
CENTRAL UPPER MICHIGAN

CITY           SKY/WX    TMP DP  RH WIND       PRES   REMARKS
MANISTIQUE     CLOUDY    15   3  59 NW9       30.01S WCI   3
ESCANABA       CLOUDY     7   3  84 NW3       30.04S
MENOMINEE      CLOUDY    12   7  80 NE6       30.04F WCI   3
SAWYER-GWINN   CLOUDY    10   5  82 SW3       29.97F
$$
MIZ001>003-009>011-084-110800-
WESTERN UPPER MICHIGAN

CITY           SKY/WX    TMP DP  RH WIND       PRES   REMARKS
IRON MOUNTAIN  CLOUDY    15   9  76 CALM      29.96F
HOUGHTON       CLOUDY    13   6  74 S5        29.92F WCI   5
COPPER HARBOR    N/A     14   7  73 SW5       29.97F WCI   6
IRONWOOD       CLOUDY    12   8  84 S5        29.94F WCI   4
$$

ABBREVIATIONS USED IN REMARKS
   TC - TEMPERATURE IN CELSIUS
  WCI - WIND CHILL INDEX
   HX - HEAT INDEX
  VSB - VISIBILITY




USA.gov is the U.S. government's official web portal to all federal, state and local government web resources and services.